sat.trackr.live / text

‹ back to catalog

STARLINK-34783

NORAD 66337 · 2025-253U

PAYLOAD ACTIVE UNKNOWN

§ Identity

Operator
Country
US
Launch date
2025-11-06
Launch site
AFETR
Launch vehicle
Mass (kg)
RCS (m²)

Purposes: comms

External: N2YO · Heavens-Above · Gunter

§ Orbital elements

Epoch: 2026-05-25T00:32:22.361856Z

Period
94.27 min
Inclination
42.9989°
Eccentricity
0.0002186
Mean motion
15.27591448 rev/d
Perigee alt
481.5 km
Apogee alt
484.5 km
Semi-major
6,861.2 km
B*
5.0451e-4
RAAN
141.8471°
Arg perigee
283.9838°
Mean anomaly
76.0770°
Rev number
3,191

§ Raw data

STARLINK-347831 66337U 25253U   26145.02248104  .00013652  00000+0  50451-3 0  99952 66337  42.9989 141.8471 0002186 283.9838  76.0770 15.27591448 31919

JSON: /api/v1/satellites/66337 · /tle

For live sub-satellite position, see the globe view (requires WebGL).

§ Visibility from observer

Set your observer location to see the next 7 days of passes ≥ 10°. The values pass through the URL so the page stays shareable.

No JS? Fill the form by hand. The geolocation button needs JavaScript.